Regional Weather Roundup
Issued by NWS New Orleans/Baton Rouge, LA

Home | Current Version | Previous Version | Graphics & Text | Print | Product List | Glossary On
Versions: 1 2 3 4 5 6 7 8 9 10 11 12 13 14 15 16 17 18 19 20 21 22 23 24 25 26 27 28 29 30 31 32 33 34 35 36 37 38 39 40 41 42 43 44 45 46 47 48 49 50
319
ASUS44 KLIX 240010
RWRLIX
NEW ORLEANS REGIONAL WEATHER ROUNDUP
NATIONAL WEATHER SERVICE NEW ORLEANS LA
700 PM CDT THU OCT 23 2014

NOTE: "FAIR" INDICATES FEW OR NO CLOUDS BELOW 12,000 FEET WITH NO
      SIGNIFICANT WEATHER AND/OR OBSTRUCTIONS TO VISIBILITY.
      SKY/WX - SKY CONDITION AND SIGNIFICANT WEATHER.
      TMP - AIR TEMPERATURE.     DP    - DEWPOINT TEMPERATURE.
      RH  - RELATIVE HUMIDITY.   PRES  - PRESSURE.
      HI  - HEAT INDEX.          WCI   - WIND CHILL INDEX.

*  THESE STATIONS ARE NOT NWS OR FAA STATIONS AND ARE NOT UNDER
   NWS QUALITY CONTROL.

LAZ038-040-048-061>063-065>067-069-240100-
SOUTHEAST LOUISIANA

CITY           SKY/WX    TMP DP  RH WIND       PRES   REMARKS
N.O. AUDUBON     N/A     70  52  53 MISG        N/A
6HR MIN TEMP:  69; 6HR MAX TEMP:  77;

N.O. INTL ARPT CLOUDY    69  46  43 CALM      30.05S
6HR MIN TEMP:  69; 6HR MAX TEMP:  74;

N.O. LAKEFRONT CLOUDY    68  50  52 SE6       30.05F
6HR MIN TEMP:  68; 6HR MAX TEMP:  75;

N.O. DOWNTOWN*   N/A     70  46  43 E3        30.05F
6HR MIN TEMP:  70; 6HR MAX TEMP:  75;

SLIDELL        CLOUDY    62  56  80 CALM      30.04F
6HR MIN TEMP:  62; 6HR MAX TEMP:  76;

BATON ROUGE    MOCLDY    63  52  67 NW5       30.08R
6HR MIN TEMP:  63; 6HR MAX TEMP:  77;

BOOTHVILLE     MOCLDY    69  60  73 N5        30.05R
6HR MIN TEMP:  69; 6HR MAX TEMP:  75;

BELLE CHASSE   CLOUDY    61  54  77 NE3       30.05R
6HR MIN TEMP:  61; 6HR MAX TEMP:  75;

BOGALUSA*        N/A     66  47  50 CALM      30.07S
6HR MIN TEMP:  65; 6HR MAX TEMP:  78;

NEW ROADS*       N/A     62  53  73 N3        30.08R
6HR MIN TEMP:  62; 6HR MAX TEMP:  73;

GONZALES*        N/A     62  59  90 CALM      30.06R
6HR MIN TEMP:  62; 6HR MAX TEMP:  75;

HAMMOND*       CLOUDY    64  50  59 N3        30.08R
HOUMA*         CLEAR     64  52  63 NE8       30.04F
PORT FOURCHON* CLEAR     70  52  52 NE8       30.08R

$$

MSZ070-080>082-240100-
SOUTHERN MISSISSIPPI

CITY           SKY/WX    TMP DP  RH WIND       PRES   REMARKS
MCCOMB         MOCLDY    63  47  55 N7        30.09R
6HR MIN TEMP:  63; 6HR MAX TEMP:  73;

GULFPORT       CLOUDY    65  54  67 CALM      30.05R
6HR MIN TEMP:  65; 6HR MAX TEMP:  76;

BILOXI         CLOUDY    68  51  55 CALM      30.05R
6HR MIN TEMP:  68; 6HR MAX TEMP:  76;

PASCAGOULA     MOCLDY    58  51  78 CALM      30.05R
6HR MIN TEMP:  57; 6HR MAX TEMP:  76;

STENNIS ARPT*  PTCLDY    63  54  72 CALM      30.05S

$$

COASTAL OBSERVATIONS
LAKE AND NEARSHORE STATIONS

STATION/POSITION TIME  TEMP    WIND        PRES    WAVE
                       AIR SEA DIR/SP/G            HT/PER
                 (UTC) (F)     (DEG/KT/KT) (MB)    (FT/S)
PASCAGOULA       0000   65     280/  2/  3 1016.8
WAVELAND YACHT   0000   68     270/  1/  2 1016.7
GRAND ISLE       0000   69 74   60/  7/ 11 1017.9
SOUTHWEST PASS   0000   72 81              1017.3
NEW CANAL        0000   69 71  140/  1/  2 1017.8
SHELL BEACH      0000   69 69  100/  5/  6 1017.5

OFFSHORE STATIONS

STATION/POSITION TIME  TEMP    WIND        PRES    WAVE
                       AIR SEA DIR/SP/G            HT/PER
                 (UTC) (F)     (DEG/KT/KT) (MB)    (FT/S)
64 S DAUPHIN ISL 2250   71 80   40/ 10/ 16 1017.0    4/ 6

$$




USA.gov is the U.S. government's official web portal to all federal, state and local government web resources and services.